Regional Weather Roundup
Issued by NWS

Home | Current Version | Previous Version | Graphics & Text | Print | Product List | Glossary On
Versions: 1 2 3 4 5 6 7 8 9 10 11 12 13 14 15 16 17 18 19 20 21 22 23 24 25
000
ASUS45 KCYS 231110
RWRWY

WYOMING REGIONAL WEATHER ROUNDUP
NATIONAL WEATHER SERVICE CHEYENNE WY
500 AM MDT THU OCT 23 2014

NOTE:  "FAIR" INDICATES FEW OR NO CLOUDS BELOW 12,000 FEET
WITH NO SIGNIFICANT WEATHER AND/OR OBSTRUCTIONS TO VISIBILITY.

WYZ001-231200-
YELLOWSTONE NATIONAL PARK

CITY           SKY/WX    TMP DP  RH WIND       PRES   REMARKS
LK YELLOWSTONE   N/A     29  26  89 VRB3      30.21S
W YELLOWSTONE  NOT AVBL

$$
WYZ002>013-054>058-071-098>099-231200-
NORTHERN WYOMING

CITY           SKY/WX    TMP DP  RH WIND       PRES   REMARKS
JACKSON        CLOUDY    32  28  86 N5        30.19F WCI  27
CODY           CLOUDY    48  21  34 S14       30.02S
GREYBULL       CLOUDY    32  22  66 SE3       30.04R
WORLAND        CLOUDY    29  20  69 S3        30.03S
SHERIDAN       PTCLDY    35  22  58 CALM      29.94F
BUFFALO        PTCLDY    40  12  32 NW6       29.98F
GILLETTE       PTCLDY    43  19  38 S5        29.99S
HULETT         FAIR      37  25  60 S8        30.00  WCI  31
NEWCASTLE      FAIR      32  27  80 CALM      30.05

$$
WYZ014>020-022>026-101>103-231200-
CENTRAL WYOMING

CITY           SKY/WX    TMP DP  RH WIND       PRES   REMARKS
BIG PINEY      MOCLDY    27  22  81 E5        30.23F WCI  22
PINEDALE       PTSUNNY   27  23  86 W6        30.24S WCI  20
DUBOIS         CLOUDY    39  16  38 NW13G18   30.14S WCI  32
LANDER         PTCLDY    39  20  46 CALM      30.08S
RIVERTON       MOCLDY    38  18  44 SW10      30.09S WCI  31
CASPER         PTCLDY    46  18  32 SW13      30.09S
DOUGLAS        CLEAR     30  17  58 N3        30.08S

$$
WYZ021-027>030-104>119-231200-
SOUTHERN WYOMING

CITY           SKY/WX    TMP DP  RH WIND       PRES   REMARKS
EVANSTON       PTCLDY    38  21  50 S7        30.23F WCI  33
FORT BRIDGER   FAIR      39  20  47 SW8       30.25F WCI  33
ROCK SPRINGS   PTCLDY    34  22  61 W5        30.23S WCI  30
DIXON          FAIR      31  29  93 CALM      30.28R
RAWLINS        MOCLDY    40  30  67 W9        30.21S WCI  34
SARATOGA       FAIR      32  28  86 S8        30.23S WCI  25
LARAMIE        MOCLDY    38  26  62 W10       30.19S WCI  31
CHEYENNE       CLEAR     38  29  70 NW5       30.15S WCI  34
TORRINGTON     CLEAR     37  25  61 SE6       30.07F WCI  32
PINE BLUFFS    FAIR      32  30  93 CALM      30.14S

$$



USA.gov is the U.S. government's official web portal to all federal, state and local government web resources and services.